MST,Max TemperatureF,Mean TemperatureF,Min TemperatureF,Max Dew PointF,MeanDew PointF,Min DewpointF,Max Humidity, Mean Humidity, Min Humidity, Max Sea Level PressureIn, Mean Sea Level PressureIn, Min Sea Level PressureIn, Max VisibilityMiles, Mean VisibilityMiles, Min VisibilityMiles, Max Wind SpeedMPH, Mean Wind SpeedMPH, Max Gust SpeedMPH,PrecipitationIn, CloudCover, Events, WindDirDegrees
2012-11-1,86,70,55,36,30,24,47,26,11,29.96,29.89,29.83,10,10,10,5,1,,0.00,0,,268
2012-11-2,84,72,60,38,33,28,41,26,13,29.93,29.86,29.81,10,10,10,6,1,,0.00,0,,351
2012-11-3,84,70,57,38,36,34,44,30,16,30.01,29.96,29.89,10,10,10,8,1,,0.00,0,,241
2012-11-4,88,72,57,41,35,29,53,29,12,30.07,30.02,29.97,10,10,10,6,1,,0.00,0,,276
2012-11-5,88,72,57,36,28,22,38,22,9,30.08,30.01,29.96,10,10,10,6,1,,0.00,0,,258
2012-11-6,89,73,57,36,33,28,44,27,12,30.08,30.00,29.94,10,9,2,5,0,,0.00,0,,44
2012-11-7,88,72,57,38,33,27,47,27,11,30.01,29.93,29.85,10,10,9,6,1,,0.00,0,,239
2012-11-8,82,70,57,53,39,28,70,36,14,29.90,29.85,29.80,10,10,10,7,1,16,0.01,2,Rain,217
2012-11-9,73,66,57,54,48,43,70,50,35,29.81,29.75,29.68,10,10,5,14,5,18,0.10,5,Rain,209
2012-11-10,60,55,48,42,29,23,53,36,27,30.05,29.91,29.78,10,10,10,13,5,18,0.00,4,,255
2012-11-11,62,50,39,32,22,10,76,37,13,30.30,30.21,30.07,10,10,10,8,1,,0.00,0,,58
2012-11-12,72,57,42,27,15,6,39,22,8,30.29,30.18,30.09,10,10,10,7,3,,0.00,0,,17
2012-11-13,75,60,45,29,23,14,51,28,10,30.16,30.09,30.02,10,10,10,6,1,,0.00,0,,220
2012-11-14,80,64,48,30,23,11,44,26,7,30.09,30.03,29.96,10,10,9,8,1,,0.00,0,,150
2012-11-15,71,61,51,32,28,25,44,29,18,30.10,30.04,29.99,10,10,10,4,1,,0.00,0,,268
2012-11-16,77,65,53,36,30,23,48,29,13,30.08,30.03,30.00,10,10,9,7,1,,0.00,0,,176
2012-11-17,73,62,52,35,33,29,49,35,20,30.08,30.02,29.98,10,10,10,5,0,,0.00,2,,237
2012-11-18,75,65,55,42,39,34,55,39,27,30.08,30.04,30.01,10,10,10,6,0,,0.00,2,,110
2012-11-19,77,64,51,43,40,36,68,45,23,30.19,30.12,30.09,10,10,9,6,1,,0.00,0,,307
2012-11-20,80,66,52,40,35,29,63,36,16,30.13,30.04,29.96,10,10,10,10,1,16,0.00,0,,139
2012-11-21,79,67,55,39,37,34,49,35,21,30.03,29.97,29.92,10,10,10,6,1,,0.00,0,,264
2012-11-22,78,64,50,39,36,33,63,40,20,30.09,30.03,29.98,10,10,10,5,1,,0.00,0,,302
2012-11-23,84,66,48,35,31,24,59,30,11,30.17,30.10,30.05,10,10,10,8,1,,0.00,0,,328
2012-11-24,82,70,57,34,31,27,42,26,13,30.11,30.01,29.91,10,10,10,6,2,,0.00,0,,344
2012-11-25,79,65,51,37,35,31,56,35,17,29.94,29.88,29.80,10,10,10,6,1,,0.00,0,,172
2012-11-26,77,64,52,38,35,32,57,39,19,30.08,29.98,29.89,10,10,9,6,1,,0.00,0,,269
2012-11-27,82,66,50,37,34,28,61,35,14,30.17,30.08,30.02,10,10,9,4,0,,0.00,0,,215
2012-11-28,79,66,54,37,34,30,47,33,17,30.12,30.07,30.01,10,10,10,7,1,,0.00,0,,223
2012-11-29,73,62,51,38,36,34,56,39,24,30.17,30.10,30.06,10,10,6,5,1,,0.00,0,,150
2012-11-30,73,62,51,45,41,38,63,47,32,30.14,30.07,30.02,10,10,10,6,1,,0.00,0,,236